Location: Newark
(13.6797°N, 8.5297°E)
Time: 04:39:18
(UTC+00:00)

Tiros 1 - All Passes

Search period start: 22 January 2020 00:00
Search period end: 01 February 2020 00:00
Orbit: 630 x 664 km, 48.4° (Epoch: 21 January)

Date Brightness Start Highest point End Pass type
(mag) Time Alt. Az. Time Alt. Az. Time Alt. Az.
22 Jan - 09:37:20 10° SSE 09:39:15 12° SE 09:41:10 10° ESE daylight
22 Jan - 11:16:37 10° SW 11:21:08 53° NW 11:25:42 10° NNE daylight
22 Jan - 20:00:25 10° N 20:03:58 20° NE 20:07:31 10° E night (unlit)
22 Jan - 21:41:42 10° WNW 21:46:08 38° SW 21:50:34 10° SSE night (unlit)
23 Jan - 10:00:49 10° SSW 10:05:08 40° SE 10:09:29 10° ENE daylight
23 Jan - 11:44:06 10° W 11:47:18 18° NW 11:50:32 10° N daylight
23 Jan - 20:25:24 10° NNW 20:30:08 59° NE 20:34:51 10° SE night (unlit)
23 Jan - 22:10:11 10° WSW 22:12:01 12° SW 22:13:53 10° SSW night (unlit)
24 Jan - 08:48:08 10° SE 08:49:13 11° SE 08:50:19 10° ESE daylight
24 Jan - 10:26:32 10° SW 10:31:05 60° NW 10:35:41 10° NNE daylight
24 Jan - 19:10:34 10° N 19:13:53 18° NE 19:17:12 10° E visible
24 Jan - 20:51:33 10° WNW 20:56:06 43° SW 21:00:38 10° SSE night (unlit)
25 Jan - 09:10:54 10° SSW 09:15:06 35° SE 09:19:19 10° ENE daylight
25 Jan - 10:53:49 10° W 10:57:14 20° NW 11:00:41 10° N daylight
25 Jan - 19:35:23 10° NNW 19:40:03 52° NE 19:44:44 10° SE visible
25 Jan - 21:19:33 10° W 21:21:59 14° SW 21:24:24 10° SSW night (unlit)
26 Jan - 09:36:27 10° SW 09:41:03 69° NW 09:45:40 10° NE daylight
26 Jan - 18:20:45 10° N 18:23:47 16° NE 18:26:49 10° E visible
26 Jan - 20:01:25 10° NW 20:06:03 49° SW 20:10:40 10° SSE visible
27 Jan - 08:21:01 10° S 08:25:04 31° SE 08:29:09 10° ENE daylight
27 Jan - 10:03:33 10° W 10:07:10 22° NW 10:10:48 10° N daylight
27 Jan - 18:45:24 10° NNW 18:50:00 46° NE 18:54:36 10° ESE visible
27 Jan - 20:29:05 10° W 20:31:56 16° SW 20:34:47 10° SSW visible
28 Jan - 08:46:24 10° SW 08:51:00 78° NW 08:55:38 10° NE daylight
28 Jan - 17:30:59 10° N 17:33:42 15° NE 17:36:24 10° ENE daylight
28 Jan - 19:11:18 10° NW 19:15:59 55° SW 19:20:42 10° SSE visible
29 Jan - 07:31:09 10° S 07:35:03 27° SE 07:38:58 10° ENE daylight
29 Jan - 09:13:19 10° W 09:17:06 25° NW 09:20:54 10° N daylight
29 Jan - 17:55:25 10° NNW 17:59:55 41° NE 18:04:27 10° ESE visible
29 Jan - 19:38:42 10° W 19:41:53 18° SW 19:45:05 10° S visible
30 Jan - 07:56:22 10° SW 08:00:58 88° NW 08:05:36 10° NE daylight
30 Jan - 16:41:18 10° NNE 16:43:36 13° NE 16:45:54 10° ENE daylight
30 Jan - 18:21:13 10° NW 18:25:56 63° SW 18:30:41 10° SSE visible
31 Jan - 06:41:18 10° S 06:45:01 24° SE 06:48:45 10° ENE daylight
31 Jan - 08:23:06 10° WSW 08:27:02 28° NW 08:30:59 10° NNE daylight
31 Jan - 17:05:27 10° NNW 17:09:51 36° NE 17:14:16 10° ESE daylight
31 Jan - 18:48:22 10° W 18:51:50 20° SW 18:55:20 10° S visible
